Flag for Switzerland Weather past 2 weeks in Chur, Graubünden, Switzerland

Now
81 °F

Pleasantly warm.


Feels Like: 80 °F
Forecast: 62 / 69 °F
Wind: 5 mph from Southwest

Location: Chur-Ems

Current Time: Sep 1, 2015 at 2:59:21 PM

Latest Report: Sep 1, 2015 at 2:00 PM


Visibility: N/A

Pressure: 29.78 "Hg (27.84 "Hg at 592m altitude)

Humidity: 31%

Dew point: 47 °F

Location of ChurLocation

Historic Weather in Chur — Graph

°F

Chur temperature yesterday

Maximum temperature yesterday: 90 °F (at 3:00 PM)
Minimum temperature yesterday: 62 °F (at 7:00 AM)
Average temperature yesterday: 76 °F

Past Weeks' High & Low Weather Summary

 TemperatureHumidityPressure
High90 °F (Aug 31, 3:00 PM)95% (Aug 19, 4:00 AM)30.30 "Hg (Aug 19, 4:00 AM)
Low53 °F (Aug 21, 7:00 AM)21% (Aug 31, 3:00 PM)29.65 "Hg (Aug 24, 12:40 PM)
Average68 °F59%30.01 "Hg
* Reported Aug 17 1:00 PM — Sep 1 1:00 PM, Chur, Weather by CustomWeather, © 2015

Note: Actual official high and low records may vary slightly from our data, if they occured in-between our weather recording intervals... More about our weather records

Advertising

Chur weather history for previous 24 hours

 ConditionsComfort  
Time TempWeatherWind HumidityBarometerVisibility
1:00 PM
Tue, Sep 1
82 °FPleasantly warm.12 mph31%29.77 "HgN/A
12:00 PM85 °FPleasantly warm.9 mph31%29.77 "HgN/A
11:00 AM80 °FPartly sunny.12 mph35%29.79 "Hg12 mi
10:00 AM74 °FMild.10 mph43%29.83 "HgN/A
9:00 AM70 °FMild.6 mph50%29.86 "HgN/A
8:00 AM67 °FPassing clouds.8 mph53%29.90 "Hg12 mi
7:00 AM63 °FMild.6 mph63%29.91 "HgN/A
6:00 AM64 °FMild.7 mph62%29.92 "HgN/A
4:00 AM66 °FMild.6 mph58%29.94 "HgN/A
3:00 AM66 °FMild.5 mph57%29.96 "HgN/A
2:00 AM67 °FClear.5 mph57%29.96 "Hg3 mi
1:00 AM69 °FMild.6 mph52%29.95 "HgN/A
12:00 AM71 °FMild.6 mph45%29.93 "HgN/A
10:00 PM
Mon, Aug 31
74 °FMild.7 mph39%29.92 "HgN/A
9:00 PM73 °FMild.2 mph46%29.92 "HgN/A
8:00 PM80 °FSunny.2 mph34%29.87 "Hg12 mi
7:00 PM83 °FPleasantly warm.3 mph29%29.85 "HgN/A
6:00 PM88 °FPleasantly warm.7 mph24%29.84 "HgN/A
5:00 PM90 °FPassing clouds.8 mph21%29.84 "Hg16 mi
4:00 PM90 °FHot.10 mph21%29.85 "HgN/A
3:00 PM90 °FHot.9 mph21%29.86 "HgN/A
2:00 PM89 °FPassing clouds.8 mph22%29.87 "Hg16 mi
Weather by CustomWeather, © 2015

See weather overviewHow to use our weather pages